contact:dominique.lefevre@mio.osupytheas.fr, maurice.libes@osupytheas.fr, didier.mallarino@osupytheas.fr
Project:EMSO http://www.emso-fr.org/EMSO-France
Depth: 2436.0 m
Title:EMSO Ligure Ouest : Data MII capteur MICROCAT
DateTime_Computer,Latitude,Longitude,Temperature,Conductivity,Pressure,DateTime_Instrument
DateTime_Computer,Latitude,Longitude,degC,S m-1,dbar,DateTime_Instrument
2021-11-05T00:02:58Z,42.805,6.029,13.2993,4.60014,2470.404,2021-11-05T02:04:23Z
2021-11-05T00:06:01Z,42.805,6.029,13.2996,4.60013,2470.39,2021-11-05T02:07:26Z
2021-11-05T00:09:04Z,42.805,6.029,13.2994,4.60013,2470.404,2021-11-05T02:10:29Z
2021-11-05T00:12:07Z,42.805,6.029,13.2994,4.60013,2470.366,2021-11-05T02:13:32Z
2021-11-05T00:15:10Z,42.805,6.029,13.2993,4.60012,2470.404,2021-11-05T02:16:35Z
2021-11-05T00:18:13Z,42.805,6.029,13.2996,4.60013,2470.404,2021-11-05T02:19:38Z
2021-11-05T00:21:16Z,42.805,6.029,13.2990,4.60013,2470.38,2021-11-05T02:22:41Z
2021-11-05T00:24:19Z,42.805,6.029,13.2996,4.60013,2470.38,2021-11-05T02:25:45Z
2021-11-05T00:27:23Z,42.805,6.029,13.2995,4.60012,2470.366,2021-11-05T02:28:48Z
2021-11-05T00:30:26Z,42.805,6.029,13.2994,4.60014,2470.343,2021-11-05T02:31:51Z
2021-11-05T00:33:29Z,42.805,6.029,13.2991,4.60012,2470.38,2021-11-05T02:34:54Z
2021-11-05T00:36:32Z,42.805,6.029,13.2991,4.60014,2470.404,2021-11-05T02:37:57Z
2021-11-05T00:39:35Z,42.805,6.029,13.2993,4.60013,2470.38,2021-11-05T02:41:00Z
2021-11-05T00:42:38Z,42.805,6.029,13.2991,4.60014,2470.38,2021-11-05T02:44:03Z
2021-11-05T00:45:41Z,42.805,6.029,13.2992,4.60013,2470.343,2021-11-05T02:47:06Z
2021-11-05T00:48:44Z,42.805,6.029,13.2997,4.60013,2470.427,2021-11-05T02:50:10Z
2021-11-05T00:51:47Z,42.805,6.029,13.2995,4.60011,2470.343,2021-11-05T02:53:13Z
2021-11-05T00:54:51Z,42.805,6.029,13.2992,4.60015,2470.404,2021-11-05T02:56:16Z
2021-11-05T00:57:54Z,42.805,6.029,13.2993,4.60014,2470.343,2021-11-05T02:59:19Z
2021-11-05T01:00:57Z,42.805,6.029,13.2993,4.60011,2470.366,2021-11-05T03:02:22Z
2021-11-05T01:04:00Z,42.805,6.029,13.2992,4.60011,2470.343,2021-11-05T03:05:25Z
2021-11-05T01:07:03Z,42.805,6.029,13.2992,4.60011,2470.404,2021-11-05T03:08:28Z
2021-11-05T01:10:06Z,42.805,6.029,13.2991,4.60011,2470.343,2021-11-05T03:11:31Z
2021-11-05T01:13:09Z,42.805,6.029,13.2989,4.60011,2470.366,2021-11-05T03:14:34Z
2021-11-05T01:16:12Z,42.805,6.029,13.2993,4.60013,2470.39,2021-11-05T03:17:38Z
2021-11-05T01:19:16Z,42.805,6.029,13.2993,4.60011,2470.404,2021-11-05T03:20:41Z
2021-11-05T01:22:19Z,42.805,6.029,13.2993,4.60014,2470.343,2021-11-05T03:23:44Z
2021-11-05T01:25:22Z,42.805,6.029,13.2991,4.60012,2470.357,2021-11-05T03:26:47Z
2021-11-05T01:28:25Z,42.805,6.029,13.2994,4.60013,2470.366,2021-11-05T03:29:50Z
2021-11-05T01:31:28Z,42.805,6.029,13.2992,4.60013,2470.39,2021-11-05T03:32:53Z
2021-11-05T01:34:31Z,42.805,6.029,13.2993,4.60012,2470.366,2021-11-05T03:35:56Z
2021-11-05T01:37:34Z,42.805,6.029,13.2993,4.60013,2470.38,2021-11-05T03:38:59Z
2021-11-05T01:40:37Z,42.805,6.029,13.2992,4.60011,2470.366,2021-11-05T03:42:03Z
2021-11-05T01:43:40Z,42.805,6.029,13.2994,4.60014,2470.366,2021-11-05T03:45:06Z
2021-11-05T01:46:44Z,42.805,6.029,13.2993,4.60011,2470.38,2021-11-05T03:48:09Z
2021-11-05T01:49:47Z,42.805,6.029,13.2994,4.60011,2470.357,2021-11-05T03:51:12Z
2021-11-05T01:52:50Z,42.805,6.029,13.2995,4.60013,2470.343,2021-11-05T03:54:15Z
2021-11-05T01:55:53Z,42.805,6.029,13.2992,4.60013,2470.366,2021-11-05T03:57:18Z
2021-11-05T01:58:56Z,42.805,6.029,13.2994,4.60011,2470.366,2021-11-05T04:00:21Z
2021-11-05T02:01:59Z,42.805,6.029,13.2995,4.60011,2470.357,2021-11-05T04:03:24Z
2021-11-05T02:05:02Z,42.805,6.029,13.2991,4.60011,2470.366,2021-11-05T04:06:27Z
2021-11-05T02:08:05Z,42.805,6.029,13.2991,4.60011,2470.39,2021-11-05T04:09:31Z
2021-11-05T02:11:09Z,42.805,6.029,13.2992,4.60011,2470.38,2021-11-05T04:12:34Z
2021-11-05T02:14:12Z,42.805,6.029,13.2994,4.60013,2470.366,2021-11-05T04:15:37Z
2021-11-05T02:17:15Z,42.805,6.029,13.2996,4.60013,2470.366,2021-11-05T04:18:40Z
2021-11-05T02:20:18Z,42.805,6.029,13.2991,4.60011,2470.404,2021-11-05T04:21:43Z
2021-11-05T02:23:21Z,42.805,6.029,13.2995,4.60014,2470.343,2021-11-05T04:24:46Z
2021-11-05T02:26:24Z,42.805,6.029,13.2993,4.60011,2470.366,2021-11-05T04:27:49Z
2021-11-05T02:29:27Z,42.805,6.029,13.2994,4.60011,2470.366,2021-11-05T04:30:52Z
2021-11-05T02:32:30Z,42.805,6.029,13.2993,4.60013,2470.366,2021-11-05T04:33:56Z
2021-11-05T02:35:33Z,42.805,6.029,13.2992,4.60012,2470.366,2021-11-05T04:36:59Z
2021-11-05T02:38:37Z,42.805,6.029,13.2991,4.60011,2470.39,2021-11-05T04:40:02Z
2021-11-05T02:41:40Z,42.805,6.029,13.2991,4.60010,2470.353,2021-11-05T04:43:05Z
2021-11-05T02:44:43Z,42.805,6.029,13.2993,4.60014,2470.39,2021-11-05T04:46:08Z
2021-11-05T02:47:46Z,42.805,6.029,13.2991,4.60011,2470.404,2021-11-05T04:49:11Z
2021-11-05T02:50:49Z,42.805,6.029,13.2994,4.60014,2470.366,2021-11-05T04:52:14Z
2021-11-05T02:53:52Z,42.805,6.029,13.2993,4.60014,2470.39,2021-11-05T04:55:17Z
2021-11-05T02:56:55Z,42.805,6.029,13.2993,4.60011,2470.39,2021-11-05T04:58:20Z
2021-11-05T02:59:58Z,42.805,6.029,13.2993,4.60014,2470.39,2021-11-05T05:01:24Z
2021-11-05T03:03:02Z,42.805,6.029,13.2993,4.60011,2470.39,2021-11-05T05:04:27Z
2021-11-05T03:06:05Z,42.805,6.029,13.2994,4.60013,2470.376,2021-11-05T05:07:30Z
2021-11-05T03:09:08Z,42.805,6.029,13.2992,4.60013,2470.404,2021-11-05T05:10:33Z
2021-11-05T03:12:11Z,42.805,6.029,13.2998,4.60014,2470.39,2021-11-05T05:13:36Z
2021-11-05T03:15:14Z,42.805,6.029,13.2992,4.60014,2470.366,2021-11-05T05:16:39Z
2021-11-05T03:18:17Z,42.805,6.029,13.2992,4.60016,2470.413,2021-11-05T05:19:42Z
2021-11-05T03:21:20Z,42.805,6.029,13.2995,4.60014,2470.413,2021-11-05T05:22:45Z
2021-11-05T03:24:23Z,42.805,6.029,13.2993,4.60013,2470.413,2021-11-05T05:25:48Z
2021-11-05T03:27:26Z,42.805,6.029,13.2994,4.60013,2470.404,2021-11-05T05:28:52Z
2021-11-05T03:30:30Z,42.805,6.029,13.2996,4.60013,2470.413,2021-11-05T05:31:55Z
2021-11-05T03:33:33Z,42.805,6.029,13.2993,4.60014,2470.437,2021-11-05T05:34:58Z
2021-11-05T03:36:36Z,42.805,6.029,13.2990,4.60014,2470.427,2021-11-05T05:38:01Z
2021-11-05T03:39:39Z,42.805,6.029,13.2993,4.60014,2470.413,2021-11-05T05:41:04Z
2021-11-05T03:42:42Z,42.805,6.029,13.2996,4.60011,2470.427,2021-11-05T05:44:07Z
2021-11-05T03:45:45Z,42.805,6.029,13.2992,4.60011,2470.46,2021-11-05T05:47:10Z
2021-11-05T03:48:48Z,42.805,6.029,13.2994,4.60013,2470.46,2021-11-05T05:50:13Z
2021-11-05T03:51:51Z,42.805,6.029,13.2994,4.60014,2470.483,2021-11-05T05:53:17Z
2021-11-05T03:54:55Z,42.805,6.029,13.2993,4.60014,2470.437,2021-11-05T05:56:20Z
2021-11-05T03:57:58Z,42.805,6.029,13.2992,4.60013,2470.437,2021-11-05T05:59:23Z
2021-11-05T04:01:01Z,42.805,6.029,13.2994,4.60013,2470.46,2021-11-05T06:02:26Z
2021-11-05T04:04:04Z,42.805,6.029,13.2993,4.60012,2470.497,2021-11-05T06:05:29Z
2021-11-05T04:07:07Z,42.805,6.029,13.2994,4.60015,2470.46,2021-11-05T06:08:32Z
2021-11-05T04:10:10Z,42.805,6.029,13.2992,4.60012,2470.474,2021-11-05T06:11:35Z
2021-11-05T04:13:13Z,42.805,6.029,13.2991,4.60012,2470.507,2021-11-05T06:14:38Z
2021-11-05T04:16:16Z,42.805,6.029,13.2992,4.60011,2470.483,2021-11-05T06:17:42Z
2021-11-05T04:19:19Z,42.805,6.029,13.2990,4.60013,2470.46,2021-11-05T06:20:45Z
2021-11-05T04:22:23Z,42.805,6.029,13.2996,4.60011,2470.474,2021-11-05T06:23:48Z
2021-11-05T04:25:26Z,42.805,6.029,13.2993,4.60012,2470.483,2021-11-05T06:26:51Z
2021-11-05T04:28:29Z,42.805,6.029,13.2993,4.60012,2470.483,2021-11-05T06:29:54Z
2021-11-05T04:31:32Z,42.805,6.029,13.2991,4.60012,2470.474,2021-11-05T06:32:57Z
2021-11-05T04:34:35Z,42.805,6.029,13.2993,4.60013,2470.497,2021-11-05T06:36:00Z
2021-11-05T04:37:38Z,42.805,6.029,13.2991,4.60014,2470.52,2021-11-05T06:39:03Z
2021-11-05T04:40:41Z,42.805,6.029,13.2992,4.60013,2470.544,2021-11-05T06:42:06Z
2021-11-05T04:43:44Z,42.805,6.029,13.2992,4.60013,2470.544,2021-11-05T06:45:10Z
2021-11-05T04:46:48Z,42.805,6.029,13.2992,4.60013,2470.52,2021-11-05T06:48:13Z
2021-11-05T04:49:51Z,42.805,6.029,13.2992,4.60013,2470.52,2021-11-05T06:51:16Z
2021-11-05T04:52:54Z,42.805,6.029,13.2993,4.60015,2470.507,2021-11-05T06:54:19Z
2021-11-05T04:55:57Z,42.805,6.029,13.2992,4.60011,2470.52,2021-11-05T06:57:22Z
2021-11-05T04:59:00Z,42.805,6.029,13.2991,4.60011,2470.507,2021-11-05T07:00:25Z
2021-11-05T05:02:03Z,42.805,6.029,13.2993,4.60013,2470.553,2021-11-05T07:03:28Z
2021-11-05T05:05:06Z,42.805,6.029,13.2991,4.60013,2470.544,2021-11-05T07:06:31Z
2021-11-05T05:08:09Z,42.805,6.029,13.2994,4.60013,2470.53,2021-11-05T07:09:35Z
2021-11-05T05:11:12Z,42.805,6.029,13.2991,4.60014,2470.591,2021-11-05T07:12:38Z
2021-11-05T05:14:16Z,42.805,6.029,13.2991,4.60014,2470.553,2021-11-05T07:15:41Z
2021-11-05T05:17:19Z,42.805,6.029,13.2996,4.60014,2470.553,2021-11-05T07:18:44Z
2021-11-05T05:20:22Z,42.805,6.029,13.2991,4.60012,2470.53,2021-11-05T07:21:47Z
2021-11-05T05:23:25Z,42.805,6.029,13.2989,4.60013,2470.567,2021-11-05T07:24:50Z
2021-11-05T05:26:28Z,42.805,6.029,13.2992,4.60011,2470.544,2021-11-05T07:27:53Z
2021-11-05T05:29:31Z,42.805,6.029,13.2992,4.60013,2470.577,2021-11-05T07:30:56Z
2021-11-05T05:32:34Z,42.805,6.029,13.2991,4.60014,2470.6,2021-11-05T07:33:59Z
2021-11-05T05:35:37Z,42.805,6.029,13.2994,4.60014,2470.553,2021-11-05T07:37:03Z
2021-11-05T05:38:41Z,42.805,6.029,13.2997,4.60016,2470.577,2021-11-05T07:40:06Z
2021-11-05T05:41:44Z,42.805,6.029,13.2993,4.60015,2470.577,2021-11-05T07:43:09Z
2021-11-05T05:44:47Z,42.805,6.029,13.2988,4.60016,2470.553,2021-11-05T07:46:12Z
2021-11-05T05:47:50Z,42.805,6.029,13.2992,4.60014,2470.591,2021-11-05T07:49:15Z
2021-11-05T05:50:53Z,42.805,6.029,13.2993,4.60014,2470.577,2021-11-05T07:52:18Z
2021-11-05T05:53:56Z,42.805,6.029,13.2995,4.60015,2470.577,2021-11-05T07:55:21Z
2021-11-05T05:56:59Z,42.805,6.029,13.2993,4.60014,2470.567,2021-11-05T07:58:24Z
2021-11-05T06:00:02Z,42.805,6.029,13.2991,4.60014,2470.577,2021-11-05T08:01:28Z
2021-11-05T06:03:05Z,42.805,6.029,13.2995,4.60017,2470.577,2021-11-05T08:04:31Z
2021-11-05T06:06:09Z,42.805,6.029,13.2992,4.60017,2470.6,2021-11-05T08:07:34Z
2021-11-05T06:09:12Z,42.805,6.029,13.2991,4.60014,2470.577,2021-11-05T08:10:37Z
2021-11-05T06:12:15Z,42.805,6.029,13.2996,4.60016,2470.6,2021-11-05T08:13:40Z
2021-11-05T06:15:18Z,42.805,6.029,13.2990,4.60014,2470.586,2021-11-05T08:16:43Z
2021-11-05T06:18:21Z,42.805,6.029,13.2992,4.60015,2470.614,2021-11-05T08:19:46Z
2021-11-05T06:21:24Z,42.805,6.029,13.2991,4.60014,2470.591,2021-11-05T08:22:49Z
2021-11-05T06:24:27Z,42.805,6.029,13.2992,4.60013,2470.577,2021-11-05T08:25:52Z
2021-11-05T06:27:30Z,42.805,6.029,13.2993,4.60014,2470.624,2021-11-05T08:28:56Z
2021-11-05T06:30:34Z,42.805,6.029,13.2993,4.60014,2470.637,2021-11-05T08:31:59Z
2021-11-05T06:33:37Z,42.805,6.029,13.2995,4.60014,2470.577,2021-11-05T08:35:02Z
2021-11-05T06:36:40Z,42.805,6.029,13.2992,4.60015,2470.624,2021-11-05T08:38:05Z
2021-11-05T06:39:43Z,42.805,6.029,13.2992,4.60016,2470.577,2021-11-05T08:41:08Z
2021-11-05T06:42:46Z,42.805,6.029,13.2994,4.60014,2470.624,2021-11-05T08:44:11Z
2021-11-05T06:45:49Z,42.805,6.029,13.2990,4.60016,2470.577,2021-11-05T08:47:14Z
2021-11-05T06:48:52Z,42.805,6.029,13.2990,4.60016,2470.637,2021-11-05T08:50:17Z
2021-11-05T06:51:55Z,42.805,6.029,13.2990,4.60014,2470.614,2021-11-05T08:53:21Z
2021-11-05T06:54:58Z,42.805,6.029,13.2992,4.60014,2470.646,2021-11-05T08:56:24Z
2021-11-05T06:58:02Z,42.805,6.029,13.2991,4.60016,2470.661,2021-11-05T08:59:27Z
2021-11-05T07:01:05Z,42.805,6.029,13.2991,4.60015,2470.637,2021-11-05T09:02:30Z
2021-11-05T07:04:08Z,42.805,6.029,13.2993,4.60016,2470.6,2021-11-05T09:05:33Z
2021-11-05T07:07:11Z,42.805,6.029,13.2994,4.60018,2470.6,2021-11-05T09:08:36Z
2021-11-05T07:10:14Z,42.805,6.029,13.2993,4.60014,2470.553,2021-11-05T09:11:39Z
2021-11-05T07:13:17Z,42.805,6.029,13.2992,4.60014,2470.624,2021-11-05T09:14:42Z
2021-11-05T07:16:20Z,42.805,6.029,13.2993,4.60014,2470.637,2021-11-05T09:17:45Z
2021-11-05T07:19:23Z,42.805,6.029,13.2991,4.60014,2470.624,2021-11-05T09:20:49Z
2021-11-05T07:22:27Z,42.805,6.029,13.2993,4.60014,2470.6,2021-11-05T09:23:52Z
2021-11-05T07:25:30Z,42.805,6.029,13.2997,4.60015,2470.646,2021-11-05T09:26:55Z
2021-11-05T07:28:33Z,42.805,6.029,13.2992,4.60013,2470.624,2021-11-05T09:29:58Z
2021-11-05T07:31:36Z,42.805,6.029,13.2996,4.60014,2470.614,2021-11-05T09:33:01Z
2021-11-05T07:34:39Z,42.805,6.029,13.2996,4.60013,2470.637,2021-11-05T09:36:04Z
2021-11-05T07:37:42Z,42.805,6.029,13.2993,4.60014,2470.6,2021-11-05T09:39:07Z
2021-11-05T07:40:45Z,42.805,6.029,13.2992,4.60014,2470.624,2021-11-05T09:42:10Z
2021-11-05T07:43:48Z,42.805,6.029,13.2993,4.60014,2470.624,2021-11-05T09:45:14Z
2021-11-05T07:46:52Z,42.805,6.029,13.2995,4.60014,2470.614,2021-11-05T09:48:17Z
2021-11-05T07:49:55Z,42.805,6.029,13.2992,4.60014,2470.646,2021-11-05T09:51:20Z
2021-11-05T07:52:58Z,42.805,6.029,13.2992,4.60015,2470.591,2021-11-05T09:54:23Z
2021-11-05T07:56:01Z,42.805,6.029,13.2996,4.60016,2470.553,2021-11-05T09:57:26Z
2021-11-05T07:59:04Z,42.805,6.029,13.2993,4.60016,2470.577,2021-11-05T10:00:29Z
2021-11-05T08:02:07Z,42.805,6.029,13.2993,4.60016,2470.614,2021-11-05T10:03:32Z
2021-11-05T08:05:10Z,42.805,6.029,13.2992,4.60016,2470.614,2021-11-05T10:06:35Z
2021-11-05T08:08:13Z,42.805,6.029,13.2995,4.60018,2470.577,2021-11-05T10:09:39Z
2021-11-05T08:11:16Z,42.805,6.029,13.2993,4.60016,2470.6,2021-11-05T10:12:42Z
2021-11-05T08:14:20Z,42.805,6.029,13.2991,4.60015,2470.591,2021-11-05T10:15:45Z
2021-11-05T08:17:23Z,42.805,6.029,13.2993,4.60016,2470.637,2021-11-05T10:18:48Z
2021-11-05T08:20:26Z,42.805,6.029,13.2993,4.60015,2470.6,2021-11-05T10:21:51Z
2021-11-05T08:23:29Z,42.805,6.029,13.2990,4.60016,2470.614,2021-11-05T10:24:54Z
2021-11-05T08:26:32Z,42.805,6.029,13.2989,4.60017,2470.6,2021-11-05T10:27:57Z
2021-11-05T08:29:35Z,42.805,6.029,13.2997,4.60019,2470.577,2021-11-05T10:31:00Z
2021-11-05T08:32:38Z,42.805,6.029,13.2991,4.60016,2470.6,2021-11-05T10:34:04Z
2021-11-05T08:35:41Z,42.805,6.029,13.2991,4.60019,2470.591,2021-11-05T10:37:07Z
2021-11-05T08:38:45Z,42.805,6.029,13.2994,4.60018,2470.577,2021-11-05T10:40:10Z
2021-11-05T08:41:48Z,42.805,6.029,13.2991,4.60017,2470.6,2021-11-05T10:43:13Z
2021-11-05T08:44:51Z,42.805,6.029,13.2993,4.60014,2470.614,2021-11-05T10:46:16Z
2021-11-05T08:47:54Z,42.805,6.029,13.2990,4.60016,2470.6,2021-11-05T10:49:19Z
2021-11-05T08:50:57Z,42.805,6.029,13.2991,4.60016,2470.614,2021-11-05T10:52:22Z
2021-11-05T08:54:00Z,42.805,6.029,13.2993,4.60015,2470.567,2021-11-05T10:55:25Z
2021-11-05T08:57:03Z,42.805,6.029,13.2990,4.60020,2470.577,2021-11-05T10:58:29Z
2021-11-05T09:00:06Z,42.805,6.029,13.2990,4.60016,2470.553,2021-11-05T11:01:32Z
2021-11-05T09:03:10Z,42.805,6.029,13.2990,4.60016,2470.577,2021-11-05T11:04:35Z
2021-11-05T09:06:13Z,42.805,6.029,13.2992,4.60015,2470.577,2021-11-05T11:07:38Z
2021-11-05T09:09:16Z,42.805,6.029,13.2991,4.60016,2470.577,2021-11-05T11:10:41Z
2021-11-05T09:12:19Z,42.805,6.029,13.2993,4.60015,2470.553,2021-11-05T11:13:44Z
2021-11-05T09:15:22Z,42.805,6.029,13.2994,4.60015,2470.577,2021-11-05T11:16:47Z
2021-11-05T09:18:25Z,42.805,6.029,13.2991,4.60019,2470.577,2021-11-05T11:19:50Z
2021-11-05T09:21:28Z,42.805,6.029,13.2993,4.60016,2470.553,2021-11-05T11:22:53Z
2021-11-05T09:24:31Z,42.805,6.029,13.2990,4.60016,2470.577,2021-11-05T11:25:57Z
2021-11-05T09:27:35Z,42.805,6.029,13.2993,4.60016,2470.53,2021-11-05T11:29:00Z
2021-11-05T09:30:38Z,42.805,6.029,13.2990,4.60016,2470.6,2021-11-05T11:32:03Z
2021-11-05T09:33:41Z,42.805,6.029,13.2991,4.60015,2470.577,2021-11-05T11:35:06Z
2021-11-05T09:36:44Z,42.805,6.029,13.2992,4.60014,2470.577,2021-11-05T11:38:09Z
2021-11-05T09:39:47Z,42.805,6.029,13.2993,4.60016,2470.544,2021-11-05T11:41:12Z
2021-11-05T09:42:50Z,42.805,6.029,13.2995,4.60016,2470.53,2021-11-05T11:44:15Z
2021-11-05T09:45:53Z,42.805,6.029,13.2990,4.60017,2470.577,2021-11-05T11:47:18Z
2021-11-05T09:48:56Z,42.805,6.029,13.2993,4.60016,2470.53,2021-11-05T11:50:22Z
2021-11-05T09:52:00Z,42.805,6.029,13.2991,4.60016,2470.53,2021-11-05T11:53:25Z
2021-11-05T09:55:03Z,42.805,6.029,13.2993,4.60015,2470.591,2021-11-05T11:56:28Z
2021-11-05T09:58:06Z,42.805,6.029,13.2996,4.60014,2470.567,2021-11-05T11:59:31Z
2021-11-05T10:01:09Z,42.805,6.029,13.2991,4.60015,2470.567,2021-11-05T12:02:34Z
2021-11-05T10:04:12Z,42.805,6.029,13.2995,4.60014,2470.52,2021-11-05T12:05:37Z
2021-11-05T10:07:15Z,42.805,6.029,13.2993,4.60015,2470.577,2021-11-05T12:08:40Z
2021-11-05T10:10:18Z,42.805,6.029,13.2991,4.60017,2470.507,2021-11-05T12:11:43Z
2021-11-05T10:13:21Z,42.805,6.029,13.2996,4.60016,2470.553,2021-11-05T12:14:47Z
2021-11-05T10:16:25Z,42.805,6.029,13.2995,4.60016,2470.544,2021-11-05T12:17:50Z
2021-11-05T10:19:28Z,42.805,6.029,13.2993,4.60016,2470.53,2021-11-05T12:20:53Z
2021-11-05T10:22:31Z,42.805,6.029,13.2993,4.60016,2470.53,2021-11-05T12:23:56Z
2021-11-05T10:25:34Z,42.805,6.029,13.2991,4.60016,2470.507,2021-11-05T12:26:59Z
2021-11-05T10:28:37Z,42.805,6.029,13.2993,4.60016,2470.567,2021-11-05T12:30:02Z
2021-11-05T10:31:40Z,42.805,6.029,13.2993,4.60015,2470.507,2021-11-05T12:33:05Z
2021-11-05T10:34:43Z,42.805,6.029,13.2993,4.60016,2470.53,2021-11-05T12:36:08Z
2021-11-05T10:37:46Z,42.805,6.029,13.2992,4.60014,2470.53,2021-11-05T12:39:12Z
2021-11-05T10:40:49Z,42.805,6.029,13.2993,4.60016,2470.497,2021-11-05T12:42:15Z
2021-11-05T10:43:53Z,42.805,6.029,13.2990,4.60015,2470.52,2021-11-05T12:45:18Z
2021-11-05T10:46:56Z,42.805,6.029,13.2991,4.60016,2470.52,2021-11-05T12:48:21Z
2021-11-05T10:49:59Z,42.805,6.029,13.2989,4.60016,2470.544,2021-11-05T12:51:24Z
2021-11-05T10:53:02Z,42.805,6.029,13.2993,4.60016,2470.497,2021-11-05T12:54:27Z
2021-11-05T10:56:05Z,42.805,6.029,13.2994,4.60016,2470.483,2021-11-05T12:57:30Z
2021-11-05T10:59:08Z,42.805,6.029,13.2991,4.60015,2470.497,2021-11-05T13:00:33Z
2021-11-05T11:02:11Z,42.805,6.029,13.2992,4.60016,2470.497,2021-11-05T13:03:37Z
2021-11-05T11:05:14Z,42.805,6.029,13.2993,4.60014,2470.507,2021-11-05T13:06:40Z
2021-11-05T11:08:18Z,42.805,6.029,13.2991,4.60014,2470.507,2021-11-05T13:09:43Z
2021-11-05T11:11:21Z,42.805,6.029,13.2996,4.60020,2470.46,2021-11-05T13:12:46Z
2021-11-05T11:14:24Z,42.805,6.029,13.2991,4.60016,2470.483,2021-11-05T13:15:49Z
2021-11-05T11:17:27Z,42.805,6.029,13.2990,4.60016,2470.483,2021-11-05T13:18:52Z
2021-11-05T11:20:30Z,42.805,6.029,13.2991,4.60014,2470.474,2021-11-05T13:21:55Z
2021-11-05T11:23:33Z,42.805,6.029,13.2995,4.60014,2470.483,2021-11-05T13:24:58Z
2021-11-05T11:26:36Z,42.805,6.029,13.2993,4.60015,2470.46,2021-11-05T13:28:02Z
2021-11-05T11:29:39Z,42.805,6.029,13.2991,4.60016,2470.46,2021-11-05T13:31:05Z
2021-11-05T11:32:43Z,42.805,6.029,13.2990,4.60015,2470.46,2021-11-05T13:34:08Z
2021-11-05T11:35:46Z,42.805,6.029,13.2994,4.60014,2470.46,2021-11-05T13:37:11Z
2021-11-05T11:38:49Z,42.805,6.029,13.2992,4.60016,2470.474,2021-11-05T13:40:14Z
2021-11-05T11:41:52Z,42.805,6.029,13.2995,4.60016,2470.46,2021-11-05T13:43:17Z
2021-11-05T11:44:55Z,42.805,6.029,13.2993,4.60015,2470.45,2021-11-05T13:46:20Z
2021-11-05T11:47:58Z,42.805,6.029,13.2993,4.60014,2470.497,2021-11-05T13:49:23Z
2021-11-05T11:51:01Z,42.805,6.029,13.2993,4.60015,2470.46,2021-11-05T13:52:26Z
2021-11-05T11:54:04Z,42.805,6.029,13.2993,4.60014,2470.413,2021-11-05T13:55:30Z
2021-11-05T11:57:08Z,42.805,6.029,13.2991,4.60014,2470.474,2021-11-05T13:58:33Z
2021-11-05T12:00:11Z,42.805,6.029,13.2993,4.60015,2470.437,2021-11-05T14:01:36Z
2021-11-05T12:03:14Z,42.805,6.029,13.2989,4.60015,2470.46,2021-11-05T14:04:39Z
2021-11-05T12:06:17Z,42.805,6.029,13.2990,4.60015,2470.45,2021-11-05T14:07:42Z
2021-11-05T12:09:20Z,42.805,6.029,13.2990,4.60016,2470.446,2021-11-05T14:10:45Z
2021-11-05T12:12:23Z,42.805,6.029,13.2990,4.60014,2470.39,2021-11-05T14:13:48Z
2021-11-05T12:15:26Z,42.805,6.029,13.2991,4.60015,2470.437,2021-11-05T14:16:51Z
2021-11-05T12:18:29Z,42.805,6.029,13.2993,4.60014,2470.413,2021-11-05T14:19:55Z
2021-11-05T12:21:33Z,42.805,6.029,13.2990,4.60015,2470.437,2021-11-05T14:22:58Z
2021-11-05T12:24:36Z,42.805,6.029,13.2998,4.60014,2470.45,2021-11-05T14:26:01Z
2021-11-05T12:27:39Z,42.805,6.029,13.2993,4.60016,2470.45,2021-11-05T14:29:04Z
2021-11-05T12:30:42Z,42.805,6.029,13.2992,4.60015,2470.413,2021-11-05T14:32:07Z
2021-11-05T12:33:45Z,42.805,6.029,13.2991,4.60014,2470.437,2021-11-05T14:35:10Z
2021-11-05T12:36:48Z,42.805,6.029,13.2992,4.60013,2470.427,2021-11-05T14:38:13Z
2021-11-05T12:39:51Z,42.805,6.029,13.2991,4.60013,2470.427,2021-11-05T14:41:16Z
2021-11-05T12:42:54Z,42.805,6.029,13.2992,4.60015,2470.413,2021-11-05T14:44:20Z
2021-11-05T12:45:57Z,42.805,6.029,13.2996,4.60014,2470.45,2021-11-05T14:47:23Z
2021-11-05T12:49:01Z,42.805,6.029,13.2991,4.60013,2470.45,2021-11-05T14:50:26Z
2021-11-05T12:52:04Z,42.805,6.029,13.2994,4.60014,2470.413,2021-11-05T14:53:29Z
2021-11-05T12:55:07Z,42.805,6.029,13.2993,4.60014,2470.423,2021-11-05T14:56:32Z
2021-11-05T12:58:10Z,42.805,6.029,13.2990,4.60014,2470.413,2021-11-05T14:59:35Z
2021-11-05T13:01:13Z,42.805,6.029,13.2994,4.60015,2470.404,2021-11-05T15:02:38Z
2021-11-05T13:04:16Z,42.805,6.029,13.2994,4.60014,2470.427,2021-11-05T15:05:41Z
2021-11-05T13:07:19Z,42.805,6.029,13.2993,4.60014,2470.404,2021-11-05T15:08:45Z
2021-11-05T13:10:22Z,42.805,6.029,13.2992,4.60018,2470.413,2021-11-05T15:11:48Z
2021-11-05T13:13:26Z,42.805,6.029,13.2991,4.60014,2470.413,2021-11-05T15:14:51Z
2021-11-05T13:16:29Z,42.805,6.029,13.2996,4.60016,2470.413,2021-11-05T15:17:54Z
2021-11-05T13:19:32Z,42.805,6.029,13.2993,4.60014,2470.427,2021-11-05T15:20:57Z
2021-11-05T13:22:35Z,42.805,6.029,13.2991,4.60016,2470.413,2021-11-05T15:24:00Z
2021-11-05T13:25:38Z,42.805,6.029,13.2990,4.60015,2470.427,2021-11-05T15:27:03Z
2021-11-05T13:28:41Z,42.805,6.029,13.2994,4.60014,2470.427,2021-11-05T15:30:06Z
2021-11-05T13:31:44Z,42.805,6.029,13.2996,4.60013,2470.39,2021-11-05T15:33:10Z
2021-11-05T13:34:47Z,42.805,6.029,13.2996,4.60014,2470.413,2021-11-05T15:36:13Z
2021-11-05T13:37:51Z,42.805,6.029,13.2991,4.60015,2470.404,2021-11-05T15:39:16Z
2021-11-05T13:40:54Z,42.805,6.029,13.2993,4.60015,2470.38,2021-11-05T15:42:19Z
2021-11-05T13:43:57Z,42.805,6.029,13.2996,4.60016,2470.437,2021-11-05T15:45:22Z
2021-11-05T13:47:00Z,42.805,6.029,13.2989,4.60015,2470.39,2021-11-05T15:48:25Z
2021-11-05T13:50:03Z,42.805,6.029,13.2993,4.60014,2470.427,2021-11-05T15:51:28Z
2021-11-05T13:53:06Z,42.805,6.029,13.2995,4.60014,2470.427,2021-11-05T15:54:31Z
2021-11-05T13:56:09Z,42.805,6.029,13.2991,4.60013,2470.437,2021-11-05T15:57:34Z
2021-11-05T13:59:12Z,42.805,6.029,13.2991,4.60013,2470.404,2021-11-05T16:00:38Z
2021-11-05T14:02:16Z,42.805,6.029,13.2992,4.60013,2470.39,2021-11-05T16:03:41Z
2021-11-05T14:05:19Z,42.805,6.029,13.2993,4.60013,2470.39,2021-11-05T16:06:44Z
2021-11-05T14:08:22Z,42.805,6.029,13.2991,4.60014,2470.404,2021-11-05T16:09:47Z
2021-11-05T14:11:25Z,42.805,6.029,13.2994,4.60016,2470.404,2021-11-05T16:12:50Z
2021-11-05T14:14:28Z,42.805,6.029,13.2991,4.60012,2470.427,2021-11-05T16:15:53Z
2021-11-05T14:17:31Z,42.805,6.029,13.2991,4.60011,2470.413,2021-11-05T16:18:56Z
2021-11-05T14:20:34Z,42.805,6.029,13.2990,4.60014,2470.413,2021-11-05T16:21:59Z
2021-11-05T14:23:37Z,42.805,6.029,13.2990,4.60014,2470.39,2021-11-05T16:25:03Z
2021-11-05T14:26:41Z,42.805,6.029,13.2996,4.60013,2470.413,2021-11-05T16:28:06Z
2021-11-05T14:29:44Z,42.805,6.029,13.2997,4.60014,2470.39,2021-11-05T16:31:09Z
2021-11-05T14:32:47Z,42.805,6.029,13.2993,4.60014,2470.39,2021-11-05T16:34:12Z
2021-11-05T14:35:50Z,42.805,6.029,13.2992,4.60015,2470.404,2021-11-05T16:37:15Z
2021-11-05T14:38:53Z,42.805,6.029,13.2993,4.60013,2470.427,2021-11-05T16:40:18Z
2021-11-05T14:41:56Z,42.805,6.029,13.2995,4.60013,2470.404,2021-11-05T16:43:21Z
2021-11-05T14:44:59Z,42.805,6.029,13.2992,4.60014,2470.39,2021-11-05T16:46:24Z
2021-11-05T14:48:02Z,42.805,6.029,13.2990,4.60014,2470.39,2021-11-05T16:49:28Z
2021-11-05T14:51:05Z,42.805,6.029,13.2992,4.60015,2470.39,2021-11-05T16:52:31Z
2021-11-05T14:54:09Z,42.805,6.029,13.2993,4.60013,2470.45,2021-11-05T16:55:34Z
2021-11-05T14:57:12Z,42.805,6.029,13.2991,4.60014,2470.413,2021-11-05T16:58:37Z
2021-11-05T15:00:15Z,42.805,6.029,13.2993,4.60016,2470.39,2021-11-05T17:01:40Z
2021-11-05T15:03:18Z,42.805,6.029,13.2992,4.60011,2470.413,2021-11-05T17:04:43Z